EJU58XT LPPR-LFPO

Flight info

Callsign EJU58XT
Flight time 1h 35m
Altitude 38000
Route N0441F380 BELDU DCT CANAR DCT ADORO DCT FITSE DCT DGO L176 CEGAM/N0432F360 L176 LUSEM DCT LULUT DCT TUDRA/N0362F240 DCT BEVOL UT158 AMB
Aircraft A320/M-SDE3FGHIRWY/LB1

Departure

Time 2026-05-04 14:19
Airport Francisco de Sá Carneiro Airport (LPPR)

Arrival

Time 2026-05-04 15:55
Airport Paris-Orly Airport (LFPO)
Time Latitude Longitude Altitude Speed Heading
2026-05-04 13:55 41.24019 -8.67307 245 ft 0 kts 90°
2026-05-04 13:55 41.24019 -8.67311 245 ft 0 kts 90°
2026-05-04 14:13 41.24019 -8.67312 245 ft 1 kts 90°
2026-05-04 14:13 41.24019 -8.67343 245 ft 4 kts 90°
2026-05-04 14:14 41.24019 -8.67372 244 ft 3 kts 90°
2026-05-04 14:14 41.24039 -8.67422 242 ft 1 kts 169°
2026-05-04 14:14 41.24040 -8.67422 242 ft 0 kts 169°
2026-05-04 14:17 41.24001 -8.67420 242 ft 9 kts 191°
2026-05-04 14:17 41.23949 -8.67467 239 ft 10 kts 229°
2026-05-04 14:17 41.23902 -8.67753 224 ft 7 kts 258°
2026-05-04 14:18 41.23898 -8.67777 223 ft 5 kts 258°
2026-05-04 14:18 41.23919 -8.67893 222 ft 9 kts 347°
2026-05-04 14:19 41.24384 -8.68016 210 ft 92 kts 349°
2026-05-04 14:19 41.25214 -8.68242 211 ft 146 kts 341°
2026-05-04 14:19 41.26220 -8.68520 865 ft 149 kts 345°
2026-05-04 14:19 41.27237 -8.68783 1659 ft 152 kts 344°
2026-05-04 14:20 41.28341 -8.69072 2114 ft 173 kts 343°
2026-05-04 14:20 41.29598 -8.69403 2529 ft 195 kts 345°
2026-05-04 14:20 41.31016 -8.69775 2904 ft 220 kts 345°
2026-05-04 14:21 41.34305 -8.70637 4232 ft 253 kts 346°
2026-05-04 14:21 41.36049 -8.71085 5169 ft 258 kts 346°
2026-05-04 14:21 41.37819 -8.71545 6148 ft 261 kts 347°
2026-05-04 14:21 41.39636 -8.71825 7047 ft 269 kts
2026-05-04 14:22 41.41440 -8.71048 7863 ft 282 kts 31°
2026-05-04 14:22 41.42846 -8.69182 8701 ft 293 kts 55°
2026-05-04 14:22 41.43607 -8.66633 9540 ft 302 kts 81°
2026-05-04 14:22 41.43742 -8.63820 10357 ft 308 kts 87°
2026-05-04 14:23 41.43911 -8.57669 10923 ft 356 kts 88°
2026-05-04 14:23 41.44001 -8.54267 11177 ft 376 kts 88°
2026-05-04 14:23 41.44094 -8.50743 11765 ft 385 kts 87°
2026-05-04 14:24 41.44192 -8.47146 12450 ft 391 kts 88°
2026-05-04 14:24 41.44292 -8.43507 13173 ft 395 kts 87°
2026-05-04 14:24 41.44396 -8.39827 13866 ft 400 kts 87°
2026-05-04 14:24 41.44500 -8.36098 14461 ft 405 kts 87°
2026-05-04 14:25 41.44604 -8.32328 15058 ft 409 kts 88°
2026-05-04 14:25 41.44813 -8.24662 16247 ft 418 kts 88°
2026-05-04 14:25 41.44917 -8.20765 16836 ft 422 kts 88°
2026-05-04 14:26 41.45017 -8.16881 17349 ft 428 kts 88°
2026-05-04 14:26 41.45117 -8.12850 17898 ft 432 kts 88°
2026-05-04 14:26 41.45213 -8.08870 18422 ft 437 kts 88°
2026-05-04 14:26 41.45311 -8.04799 18882 ft 441 kts 88°
2026-05-04 14:27 41.45409 -8.00700 19331 ft 445 kts 88°
2026-05-04 14:27 41.45508 -7.96561 19798 ft 449 kts 88°
2026-05-04 14:27 41.45611 -7.92389 20264 ft 452 kts 88°
2026-05-04 14:27 41.45714 -7.88171 20716 ft 456 kts 88°
2026-05-04 14:28 41.45812 -7.83927 21166 ft 460 kts 88°
2026-05-04 14:28 41.45908 -7.79654 21604 ft 464 kts 89°
2026-05-04 14:28 41.46003 -7.75339 22059 ft 467 kts 89°
2026-05-04 14:28 41.46100 -7.71000 22493 ft 470 kts 89°
2026-05-04 14:29 41.46289 -7.62211 23292 ft 478 kts 89°
2026-05-04 14:29 41.46470 -7.53306 24057 ft 482 kts 89°
2026-05-04 14:30 41.46558 -7.48822 24408 ft 485 kts 89°
2026-05-04 14:30 41.46647 -7.44312 24738 ft 488 kts 89°
2026-05-04 14:30 41.46822 -7.35221 25402 ft 493 kts 89°
2026-05-04 14:31 41.46906 -7.30635 25727 ft 496 kts 89°
2026-05-04 14:31 41.47068 -7.21405 26325 ft 500 kts 90°
2026-05-04 14:32 41.47221 -7.12100 26974 ft 503 kts 90°
2026-05-04 14:32 41.47297 -7.07430 27268 ft 506 kts 90°
2026-05-04 14:32 41.47370 -7.02792 27550 ft 508 kts 90°
2026-05-04 14:32 41.47446 -6.98073 27829 ft 510 kts 90°
2026-05-04 14:33 41.47522 -6.93333 28218 ft 510 kts 90°
2026-05-04 14:33 41.47594 -6.88602 28633 ft 509 kts 90°
2026-05-04 14:33 41.47660 -6.83881 29021 ft 509 kts 90°
2026-05-04 14:33 41.47723 -6.79163 29469 ft 508 kts 90°
2026-05-04 14:34 41.47783 -6.74457 29904 ft 507 kts 90°
2026-05-04 14:34 41.47843 -6.69756 30264 ft 507 kts 90°
2026-05-04 14:34 41.47904 -6.65055 30587 ft 507 kts 90°
2026-05-04 14:34 41.47960 -6.60355 30896 ft 507 kts 90°
2026-05-04 14:35 41.48014 -6.55649 31206 ft 507 kts 90°
2026-05-04 14:35 41.48066 -6.50941 31521 ft 507 kts 90°
2026-05-04 14:35 41.48118 -6.46238 31837 ft 508 kts 90°
2026-05-04 14:35 41.48169 -6.41530 31951 ft 507 kts 90°
2026-05-04 14:36 41.48218 -6.36825 31965 ft 507 kts 90°
2026-05-04 14:36 41.48854 -6.27498 31964 ft 507 kts 77°
2026-05-04 14:37 41.51137 -6.18696 31958 ft 506 kts 66°
2026-05-04 14:37 41.53786 -6.09992 32110 ft 507 kts 67°
2026-05-04 14:37 41.55106 -6.05631 32477 ft 506 kts 67°
2026-05-04 14:38 41.56419 -6.01276 32838 ft 505 kts 67°
2026-05-04 14:38 41.57730 -5.96925 33165 ft 505 kts 67°
2026-05-04 14:38 41.59041 -5.92560 33502 ft 505 kts 67°
2026-05-04 14:38 41.60351 -5.88194 33837 ft 505 kts 67°
2026-05-04 14:39 41.61656 -5.83843 34137 ft 505 kts 67°
2026-05-04 14:39 41.62960 -5.79485 34432 ft 505 kts 67°
2026-05-04 14:39 41.64257 -5.75134 34771 ft 503 kts 67°
2026-05-04 14:40 41.66835 -5.66465 35398 ft 500 kts 68°
2026-05-04 14:40 41.68120 -5.62147 35694 ft 499 kts 68°
2026-05-04 14:40 41.69405 -5.57833 35965 ft 499 kts 68°
2026-05-04 14:40 41.70685 -5.53526 36201 ft 499 kts 68°
2026-05-04 14:41 41.71965 -5.49215 36436 ft 498 kts 68°
2026-05-04 14:41 41.73243 -5.44904 36689 ft 498 kts 68°
2026-05-04 14:41 41.75789 -5.36278 37150 ft 498 kts 68°
2026-05-04 14:42 41.78321 -5.27647 37591 ft 498 kts 68°
2026-05-04 14:42 41.79585 -5.23327 37806 ft 498 kts 68°
2026-05-04 14:42 41.80847 -5.19008 37963 ft 498 kts 68°
2026-05-04 14:43 41.83353 -5.10392 37995 ft 500 kts 68°
2026-05-04 14:43 41.85876 -5.01702 37992 ft 500 kts 68°
2026-05-04 14:44 41.88399 -4.93022 38008 ft 500 kts 68°
2026-05-04 14:44 41.90918 -4.84337 37996 ft 499 kts 69°
2026-05-04 14:45 41.93416 -4.75641 37997 ft 500 kts 69°
2026-05-04 14:45 41.95906 -4.66921 37994 ft 500 kts 69°
2026-05-04 14:46 41.98398 -4.58199 37997 ft 500 kts 69°
2026-05-04 14:46 42.00892 -4.49470 38007 ft 500 kts 69°
2026-05-04 14:47 42.03617 -4.40889 38011 ft 498 kts 56°
2026-05-04 14:47 42.05756 -4.37242 38011 ft 495 kts 45°
2026-05-04 14:47 42.08114 -4.33866 38005 ft 495 kts 45°
2026-05-04 14:48 42.12852 -4.27136 38023 ft 495 kts 45°
2026-05-04 14:48 42.17596 -4.20402 38016 ft 495 kts 45°
2026-05-04 14:49 42.22324 -4.13648 38005 ft 495 kts 45°
2026-05-04 14:49 42.27039 -4.06889 38011 ft 495 kts 45°
2026-05-04 14:50 42.31753 -4.00114 38008 ft 495 kts 45°
2026-05-04 14:50 42.36431 -3.93371 38015 ft 495 kts 45°
2026-05-04 14:51 42.41134 -3.86569 38020 ft 495 kts 45°
2026-05-04 14:51 42.45839 -3.79768 38016 ft 495 kts 45°
2026-05-04 14:52 42.50541 -3.72955 38014 ft 495 kts 45°
2026-05-04 14:52 42.55241 -3.66129 38019 ft 495 kts 46°
2026-05-04 14:53 42.59930 -3.59290 38036 ft 495 kts 46°
2026-05-04 14:53 42.64610 -3.52449 38037 ft 494 kts 46°
2026-05-04 14:54 42.69281 -3.45607 38037 ft 494 kts 46°
2026-05-04 14:54 42.73947 -3.38746 38021 ft 494 kts 46°
2026-05-04 14:55 42.78614 -3.31889 38027 ft 494 kts 46°
2026-05-04 14:55 42.83282 -3.25020 38033 ft 494 kts 46°
2026-05-04 14:56 42.87942 -3.18147 38038 ft 494 kts 46°
2026-05-04 14:56 42.92597 -3.11256 38035 ft 494 kts 46°
2026-05-04 14:57 42.97242 -3.04343 38029 ft 494 kts 47°
2026-05-04 14:57 43.01879 -2.97416 38044 ft 494 kts 47°
2026-05-04 14:58 43.06522 -2.90487 38041 ft 494 kts 47°
2026-05-04 14:58 43.10379 -2.84731 38045 ft 494 kts 47°
2026-05-04 14:59 43.15802 -2.76604 38049 ft 494 kts 47°
2026-05-04 15:00 43.22725 -2.66204 38044 ft 494 kts 47°
2026-05-04 15:00 43.27347 -2.59232 38042 ft 494 kts 47°
2026-05-04 15:01 43.34197 -2.48842 38026 ft 491 kts 47°
2026-05-04 15:01 43.38751 -2.41930 37986 ft 483 kts 47°
2026-05-04 15:02 43.43213 -2.35151 38019 ft 473 kts 47°
2026-05-04 15:02 43.47603 -2.28488 37995 ft 472 kts 44°
2026-05-04 15:03 43.50161 -2.25652 38018 ft 475 kts 33°
2026-05-04 15:03 43.52902 -2.23073 38015 ft 480 kts 33°
2026-05-04 15:03 43.58478 -2.17839 38011 ft 489 kts 33°
2026-05-04 15:04 43.64123 -2.12531 38006 ft 492 kts 33°
2026-05-04 15:04 43.68819 -2.08110 38002 ft 492 kts 33°
2026-05-04 15:05 43.74468 -2.02772 37998 ft 492 kts 33°
2026-05-04 15:05 43.80119 -1.97423 37998 ft 492 kts 33°
2026-05-04 15:06 43.85762 -1.92069 38012 ft 492 kts 33°
2026-05-04 15:07 43.94218 -1.84020 37988 ft 491 kts 34°
2026-05-04 15:07 43.99845 -1.78643 37992 ft 491 kts 34°
2026-05-04 15:08 44.05469 -1.73256 38005 ft 491 kts 34°
2026-05-04 15:08 44.11065 -1.67894 38004 ft 490 kts 34°
2026-05-04 15:09 44.16676 -1.62503 38001 ft 490 kts 34°
2026-05-04 15:09 44.22281 -1.57095 38001 ft 490 kts 34°
2026-05-04 15:10 44.30587 -1.49050 37935 ft 481 kts 34°
2026-05-04 15:10 44.36018 -1.43783 37977 ft 470 kts 34°
2026-05-04 15:11 44.38697 -1.41185 37973 ft 466 kts 34°
2026-05-04 15:11 44.43979 -1.36054 37972 ft 459 kts 35°
2026-05-04 15:12 44.49177 -1.30986 37974 ft 452 kts 35°
2026-05-04 15:12 44.54299 -1.25983 37975 ft 446 kts 35°
2026-05-04 15:13 44.59354 -1.21041 37977 ft 440 kts 35°
2026-05-04 15:13 44.64348 -1.16142 37982 ft 435 kts 35°
2026-05-04 15:14 44.69285 -1.11277 37971 ft 431 kts 35°
2026-05-04 15:14 44.74162 -1.06461 37964 ft 427 kts 35°
2026-05-04 15:15 44.79002 -1.01685 37959 ft 423 kts 35°
2026-05-04 15:15 44.83912 -0.97088 37958 ft 429 kts 28°
2026-05-04 15:16 44.89226 -0.93080 37972 ft 442 kts 27°
2026-05-04 15:16 44.91969 -0.91051 37969 ft 448 kts 27°
2026-05-04 15:16 44.97564 -0.86908 37966 ft 460 kts 27°
2026-05-04 15:17 45.00416 -0.84782 37951 ft 466 kts 27°
2026-05-04 15:17 45.06212 -0.80440 37951 ft 477 kts 27°
2026-05-04 15:17 45.09158 -0.78218 37952 ft 482 kts 28°
2026-05-04 15:18 45.15139 -0.73692 37944 ft 490 kts 28°
2026-05-04 15:19 45.24172 -0.66859 37951 ft 490 kts 28°
2026-05-04 15:19 45.33190 -0.60027 37941 ft 490 kts 28°
2026-05-04 15:20 45.39200 -0.55468 37956 ft 490 kts 28°
2026-05-04 15:20 45.45220 -0.50877 37959 ft 490 kts 28°
2026-05-04 15:21 45.51185 -0.46310 37957 ft 490 kts 28°
2026-05-04 15:22 45.60180 -0.39407 37971 ft 489 kts 28°
2026-05-04 15:22 45.69178 -0.32492 37965 ft 489 kts 28°
2026-05-04 15:23 45.75167 -0.27874 37952 ft 489 kts 28°
2026-05-04 15:23 45.81159 -0.23228 37950 ft 489 kts 28°
2026-05-04 15:24 45.93141 -0.13933 37947 ft 490 kts 28°
2026-05-04 15:25 45.99141 -0.09258 37953 ft 490 kts 29°
2026-05-04 15:26 46.08077 -0.02256 37934 ft 490 kts 29°
2026-05-04 15:26 46.17070 0.04806 37940 ft 491 kts 28°
2026-05-04 15:27 46.26079 0.11902 37939 ft 492 kts 29°
2026-05-04 15:28 46.35107 0.19038 37947 ft 493 kts 28°
2026-05-04 15:29 46.44147 0.26201 37968 ft 494 kts 29°
2026-05-04 15:30 46.65163 0.42995 37958 ft 493 kts 28°
2026-05-04 15:31 46.74167 0.50241 37958 ft 493 kts 29°
2026-05-04 15:32 46.89162 0.62359 37521 ft 492 kts 28°
2026-05-04 15:33 46.95182 0.66964 36995 ft 492 kts 26°
2026-05-04 15:34 47.04379 0.73628 36224 ft 491 kts 26°
2026-05-04 15:34 47.07437 0.75866 35972 ft 492 kts 27°
2026-05-04 15:34 47.13552 0.80412 35470 ft 493 kts 27°
2026-05-04 15:35 47.19659 0.85005 34973 ft 494 kts 27°
2026-05-04 15:35 47.22720 0.87308 34730 ft 494 kts 27°
2026-05-04 15:35 47.25787 0.89614 34494 ft 495 kts 27°
2026-05-04 15:36 47.31934 0.94243 34013 ft 503 kts 28°
2026-05-04 15:36 47.35072 0.96605 33752 ft 508 kts 28°
2026-05-04 15:36 47.38230 0.98979 33486 ft 510 kts 27°
2026-05-04 15:37 47.41361 1.01331 33216 ft 511 kts 27°
2026-05-04 15:37 47.44527 1.03718 32941 ft 512 kts 28°
2026-05-04 15:37 47.47696 1.06112 32672 ft 512 kts 28°
2026-05-04 15:37 47.50872 1.08514 32403 ft 512 kts 28°
2026-05-04 15:38 47.54043 1.10918 32134 ft 512 kts 28°
2026-05-04 15:38 47.57222 1.13334 31875 ft 513 kts 28°
2026-05-04 15:38 47.60397 1.15749 31350 ft 514 kts 28°
2026-05-04 15:38 47.63571 1.18165 30421 ft 511 kts 28°
2026-05-04 15:39 47.66700 1.20554 28762 ft 506 kts 28°
2026-05-04 15:39 47.69873 1.22985 27090 ft 516 kts 28°
2026-05-04 15:39 47.76194 1.27823 25125 ft 507 kts 27°
2026-05-04 15:40 47.79300 1.30206 23661 ft 498 kts 27°
2026-05-04 15:40 47.82330 1.32533 22208 ft 484 kts 27°
2026-05-04 15:40 47.85282 1.34802 20788 ft 472 kts 27°
2026-05-04 15:40 47.88153 1.37010 19133 ft 477 kts 27°
2026-05-04 15:41 47.91101 1.39275 18358 ft 472 kts 27°
2026-05-04 15:41 47.94037 1.41465 17839 ft 459 kts 26°
2026-05-04 15:41 47.96883 1.43350 17256 ft 448 kts 23°
2026-05-04 15:41 47.99731 1.45346 15993 ft 454 kts 27°
2026-05-04 15:42 48.02495 1.47586 15234 ft 448 kts 30°
2026-05-04 15:42 48.05178 1.49887 14519 ft 441 kts 30°
2026-05-04 15:42 48.07828 1.52159 13776 ft 436 kts 30°
2026-05-04 15:42 48.10466 1.54352 12992 ft 430 kts 29°
2026-05-04 15:43 48.13079 1.56447 12222 ft 423 kts 28°
2026-05-04 15:43 48.15654 1.58520 11464 ft 417 kts 32°
2026-05-04 15:43 48.18048 1.60838 10915 ft 404 kts 34°
2026-05-04 15:43 48.20378 1.63152 10109 ft 400 kts 34°
2026-05-04 15:44 48.22678 1.65476 9207 ft 397 kts 34°
2026-05-04 15:44 48.24951 1.67791 8365 ft 392 kts 35°
2026-05-04 15:44 48.27185 1.70073 7597 ft 386 kts 35°
2026-05-04 15:44 48.29357 1.72286 7382 ft 366 kts 34°
2026-05-04 15:45 48.31407 1.74364 7262 ft 345 kts 35°
2026-05-04 15:45 48.33348 1.76320 7138 ft 326 kts 34°
2026-05-04 15:45 48.35187 1.78170 7021 ft 310 kts 34°
2026-05-04 15:45 48.36939 1.79936 6893 ft 296 kts 35°
2026-05-04 15:46 48.38606 1.81625 6777 ft 282 kts 34°
2026-05-04 15:46 48.40203 1.83245 6655 ft 274 kts 36°
2026-05-04 15:46 48.41756 1.84826 6529 ft 273 kts 35°
2026-05-04 15:46 48.43324 1.86421 6408 ft 271 kts 35°
2026-05-04 15:47 48.44884 1.88007 6283 ft 270 kts 35°
2026-05-04 15:47 48.46439 1.89589 6153 ft 269 kts 35°
2026-05-04 15:47 48.47993 1.91171 6031 ft 269 kts 35°
2026-05-04 15:47 48.49540 1.92745 5905 ft 268 kts 35°
2026-05-04 15:48 48.51087 1.94321 5777 ft 268 kts 35°
2026-05-04 15:48 48.52628 1.95897 5644 ft 267 kts 35°
2026-05-04 15:48 48.55696 1.99047 5391 ft 265 kts 35°
2026-05-04 15:49 48.57223 2.00610 5230 ft 266 kts 36°
2026-05-04 15:49 48.58739 2.02157 4928 ft 260 kts 35°
2026-05-04 15:49 48.60225 2.03670 4592 ft 255 kts 35°
2026-05-04 15:49 48.61660 2.05136 4261 ft 242 kts 35°
2026-05-04 15:50 48.62950 2.06628 4009 ft 228 kts 49°
2026-05-04 15:50 48.63777 2.08587 3746 ft 216 kts 62°
2026-05-04 15:50 48.64465 2.10527 3468 ft 201 kts 62°
2026-05-04 15:50 48.65103 2.12318 3225 ft 190 kts 62°
2026-05-04 15:51 48.65721 2.14050 2959 ft 184 kts 62°
2026-05-04 15:51 48.66325 2.15745 2714 ft 182 kts 62°
2026-05-04 15:51 48.66906 2.17374 2477 ft 170 kts 62°
2026-05-04 15:51 48.67450 2.18899 2243 ft 160 kts 62°
2026-05-04 15:52 48.67794 2.19865 2118 ft 156 kts 62°
2026-05-04 15:52 48.68478 2.21786 1835 ft 153 kts 62°
2026-05-04 15:52 48.68964 2.23153 1630 ft 147 kts 62°
2026-05-04 15:52 48.69441 2.24493 1445 ft 141 kts 62°
2026-05-04 15:53 48.69906 2.25801 1258 ft 141 kts 62°
2026-05-04 15:53 48.70370 2.27106 1057 ft 141 kts 62°
2026-05-04 15:53 48.70848 2.28405 850 ft 142 kts 61°
2026-05-04 15:53 48.71157 2.29297 719 ft 142 kts 63°
2026-05-04 15:54 48.71763 2.31028 450 ft 140 kts 60°
2026-05-04 15:54 48.72223 2.32324 307 ft 138 kts 61°
2026-05-04 15:54 48.72650 2.33530 284 ft 110 kts 62°
2026-05-04 15:54 48.72929 2.34318 282 ft 60 kts 62°
2026-05-04 15:55 48.72994 2.34559 284 ft 31 kts 79°
2026-05-04 15:55 48.73018 2.34833 282 ft 25 kts 82°
2026-05-04 15:55 48.73040 2.35086 282 ft 19 kts 88°
2026-05-04 15:55 48.73021 2.35224 286 ft 12 kts 112°
2026-05-04 15:56 48.72964 2.35298 282 ft 10 kts 147°
2026-05-04 15:56 48.72903 2.35324 283 ft 8 kts 187°
2026-05-04 15:56 48.72885 2.35343 284 ft 4 kts 64°
2026-05-04 15:56 48.72850 2.35434 282 ft 11 kts 160°
2026-05-04 15:57 48.72779 2.35467 285 ft 10 kts 158°
2026-05-04 15:57 48.72755 2.35547 281 ft 8 kts 88°
2026-05-04 15:57 48.72768 2.35624 284 ft 7 kts 75°
2026-05-04 15:57 48.72781 2.35694 283 ft 6 kts 75°
2026-05-04 15:58 48.72792 2.35755 284 ft 6 kts 74°
2026-05-04 15:58 48.72812 2.35796 285 ft 4 kts 49°
2026-05-04 15:58 48.72832 2.35828 282 ft 4 kts 46°
2026-05-04 15:58 48.72838 2.35838 283 ft 0 kts 46°
2026-05-04 16:00 48.72839 2.35838 279 ft 0 kts 46°